Lapse_Rate
7.5 7.5 7.4 7.3 7.3 7.1 7.0 7.0 6.8 6.8 6.9 6.9 6.9 7.0 7.0 7.1 7.2 7.3 7.3 7.5 7.7 7.9 8.0 8.4 8.3 8.4 8.2 8.4 8.3 7.4 8.5 8.3 8.5 8.8 8.8 8.6 8.5 8.1 8.3 8.1 7.7 7.6 7.2 6.9 6.8
7.5 7.5 7.4 7.4 7.3 7.2 7.1 7.1 7.1 7.0 7.2 7.1 7.1 7.1 7.1 7.3 7.3 7.3 7.4 7.5 7.7 7.9 8.1 8.4 8.5 8.5 8.4 8.3 8.1 8.7 8.9 8.8 8.7 8.7 8.8 8.7 8.3 8.3 8.2 8.2 8.1 8.0 7.5 6.9 6.9
7.6 7.6 7.5 7.5 7.4 7.3 7.2 7.1 7.2 7.3 7.3 7.3 7.2 7.2 7.2 7.3 7.4 7.3 7.5 7.6 7.8 7.9 8.2 8.6 8.6 8.5 8.2 8.2 8.3 8.9 9.1 9.4 9.5 8.9 9.2 8.5 8.2 8.2 8.3 8.3 8.1 8.0 7.8 7.2 7.1
7.5 7.6 7.6 7.4 7.4 7.4 7.4 7.3 7.3 7.4 7.3 7.4 7.4 7.4 7.3 7.4 7.3 7.4 7.5 7.6 7.8 7.9 8.0 7.8 7.8 7.7 8.2 8.3 8.7 9.3 9.2 8.8 9.2 9.3 9.1 8.5 8.2 8.1 8.0 8.2 8.4 8.1 7.8 7.6 7.3
7.5 7.6 7.7 7.6 7.6 7.5 7.4 7.4 7.3 7.4 7.4 7.4 7.4 7.4 7.4 7.5 7.6 7.5 7.5 7.6 7.7 7.9 8.0 7.6 7.4 7.8 8.0 8.1 8.5 8.9 9.0 8.9 8.7 9.0 8.8 8.4 8.3 8.2 8.1 8.1 8.1 8.2 7.6 7.7 7.4
7.5 7.5 7.6 7.6 7.7 7.6 7.5 7.5 7.5 7.5 7.5 7.5 7.5 7.4 7.5 7.5 7.6 7.7 7.6 7.7 7.8 7.9 7.9 7.5 7.6 7.5 7.7 7.9 7.7 8.3 8.6 8.8 9.0 8.8 8.9 8.8 8.5 8.5 8.2 8.0 8.1 8.2 7.9 7.7 7.5
7.3 7.5 7.6 7.6 7.7 7.7 7.7 7.5 7.5 7.6 7.6 7.5 7.5 7.5 7.4 7.7 7.5 7.5 7.6 7.6 7.6 7.7 7.9 8.0 8.4 8.1 7.9 8.1 8.0 8.3 8.8 8.9 8.8 8.7 9.0 8.9 8.6 8.4 8.4 8.2 8.2 7.9 7.8 7.8 7.8
7.2 7.3 7.5 7.6 7.7 7.7 7.7 7.6 7.5 7.6 7.6 7.6 7.6 7.6 7.6 7.7 7.6 7.6 7.6 7.6 7.6 7.8 7.9 8.1 8.3 8.1 8.2 8.1 8.5 8.8 8.7 8.9 9.1 8.8 8.6 9.1 8.8 8.6 8.0 8.2 8.1 7.8 7.9 7.8 7.4
7.2 7.3 7.4 7.5 7.6 7.7 7.7 7.6 7.5 7.5 7.6 7.7 7.7 7.7 7.7 7.6 7.7 7.7 7.6 7.5 7.8 7.8 7.8 7.9 8.0 7.9 8.2 8.5 8.6 8.8 9.0 9.0 9.0 9.2 9.1 9.2 9.0 8.2 8.1 8.1 8.0 8.1 8.2 7.9 7.3
7.2 7.2 7.3 7.4 7.5 7.6 7.6 7.5 7.5 7.6 7.6 7.6 7.7 7.7 7.6 7.3 7.7 7.7 7.5 7.6 7.8 7.6 7.7 7.8 7.9 8.0 8.2 8.6 8.8 8.7 8.9 9.2 9.1 9.3 9.3 9.3 9.2 8.7 8.4 8.2 8.4 8.1 8.4 8.0 7.7
7.2 7.3 7.3 7.3 7.3 7.4 7.5 7.6 7.6 7.6 7.6 7.6 7.8 7.8 7.6 7.5 7.5 7.6 7.5 7.5 7.7 7.6 7.8 7.7 7.8 8.3 8.8 8.5 8.2 8.3 9.0 9.5 9.3 9.5 9.5 9.5 9.4 8.8 8.7 8.4 8.3 8.4 8.5 8.2 8.0
7.0 7.2 7.3 7.3 7.3 7.3 7.2 7.6 7.5 7.6 7.9 7.9 7.8 7.7 7.8 7.9 7.7 7.3 7.7 7.6 7.8 7.8 7.6 7.6 8.2 8.6 8.3 8.3 8.2 8.5 8.8 9.3 9.6 9.4 9.4 9.4 9.3 9.5 9.3 9.0 8.7 8.8 8.6 8.2 8.2
6.9 7.1 7.2 7.4 7.4 7.2 7.0 7.1 7.1 7.3 7.6 8.1 7.9 8.0 7.8 7.8 8.1 7.6 7.6 7.6 7.7 7.8 7.7 7.9 8.1 8.1 7.9 8.4 8.3 8.4 8.9 9.2 9.1 9.2 9.2 9.0 9.1 9.0 9.3 9.0 9.0 8.9 8.7 8.4 8.3
7.0 7.0 7.0 7.2 7.3 7.2 7.2 7.3 7.4 7.3 7.3 8.3 8.1 8.4 7.7 7.8 8.0 8.0 7.9 7.6 7.7 7.9 8.1 7.9 8.3 8.2 8.0 8.1 8.2 8.2 8.9 8.8 8.9 9.0 9.0 8.9 8.4 9.0 9.1 9.2 8.9 8.8 8.5 8.7 8.5
7.0 7.0 7.1 7.0 7.0 7.1 7.4 7.5 7.1 7.3 6.7 8.6 8.6 8.4 8.4 8.1 8.6 8.3 8.1 7.6 7.9 8.2 7.7 8.1 8.2 8.2 8.3 8.3 8.2 8.5 8.5 8.5 8.6 8.7 8.7 8.8 8.6 8.8 8.7 8.7 8.8 9.1 8.7 8.6 8.6
6.8 7.0 7.2 6.9 6.8 7.1 7.4 7.3 7.2 7.2 7.2 8.4 8.4 8.5 8.3 8.1 8.3 8.0 7.9 7.7 7.8 7.8 7.7 8.1 8.1 7.9 8.2 8.3 8.4 8.6 8.4 8.4 8.6 8.6 8.2 8.8 8.6 8.9 9.0 9.1 9.0 8.6 8.5 8.8 8.6
7.0 7.1 7.2 7.0 6.9 7.1 7.2 7.2 7.0 7.0 8.1 8.4 8.5 8.7 8.7 8.5 8.4 7.9 7.7 7.8 7.7 7.6 7.9 8.3 8.2 8.0 8.1 8.4 8.5 8.6 8.5 8.2 7.7 7.3 7.4 8.8 8.5 9.0 8.9 9.0 8.8 8.6 8.8 9.0 8.7
6.9 6.9 7.1 7.1 7.1 7.2 6.9 6.9 7.0 7.8 8.5 8.6 8.5 8.4 8.4 8.6 8.4 8.2 7.9 7.8 7.8 7.9 8.0 8.1 8.4 8.4 8.9 8.7 8.7 8.6 8.7 8.3 7.2 6.6 8.0 8.8 8.8 8.9 8.9 8.8 8.8 8.9 8.9 8.8 8.5
6.8 6.8 6.9 7.0 7.1 7.0 6.7 6.4 7.1 8.3 8.2 8.2 8.4 8.4 8.3 8.2 8.5 8.5 8.0 7.8 8.3 8.2 7.9 8.2 8.4 8.9 8.7 8.7 9.1 8.8 8.6 8.8 8.5 8.0 8.0 8.4 8.5 8.5 8.7 8.7 8.9 8.9 8.7 8.9 8.7
6.7 6.8 6.9 6.8 7.0 6.8 6.6 6.8 7.6 8.1 7.9 8.1 8.3 8.6 8.8 8.8 8.5 8.6 8.4 8.2 8.3 8.4 8.3 8.3 8.4 8.9 8.6 9.1 9.2 9.0 9.1 8.9 8.6 7.5 7.7 8.1 8.4 8.9 8.9 9.0 9.0 8.6 8.7 8.5 8.4
6.7 6.6 6.5 6.6 6.7 6.8 6.8 7.4 7.9 8.1 8.0 8.0 8.1 8.5 8.5 8.4 8.5 8.7 8.7 8.7 8.5 8.7 8.6 8.6 8.7 9.2 8.7 8.9 9.3 9.3 9.0 9.0 8.9 8.9 7.5 6.7 8.3 8.8 8.9 9.2 8.8 8.3 8.4 8.3 8.1
6.6 6.6 6.3 6.3 6.5 6.7 7.5 8.0 7.7 8.3 8.2 7.9 8.0 8.4 8.5 8.6 8.6 8.7 8.9 9.1 9.2 9.0 8.7 8.8 9.0 9.1 9.0 9.4 9.4 9.3 9.2 9.3 8.9 8.9 9.2 8.8 8.1 8.8 8.9 9.3 9.0 8.9 8.2 8.3 8.3
6.6 6.3 6.3 6.2 6.4 6.6 7.1 7.5 7.6 8.3 8.5 8.2 8.0 8.1 8.5 8.5 8.6 8.8 8.6 8.6 9.3 9.3 8.9 9.2 9.2 9.1 9.2 9.3 9.4 9.5 9.3 9.3 9.4 9.3 9.2 8.8 8.1 8.6 8.7 9.0 8.9 8.9 8.7 8.8 8.4
6.6 6.1 5.9 6.2 6.1 6.1 6.6 7.3 7.7 8.2 8.5 8.2 8.0 8.2 8.5 8.5 8.4 8.7 8.6 8.5 8.9 9.2 9.4 9.3 9.3 9.1 9.3 9.3 9.0 9.2 9.2 8.9 9.1 9.3 9.3 9.2 8.8 8.7 8.9 9.1 9.0 8.8 8.8 8.6 8.3
6.2 6.0 6.2 6.3 6.3 6.2 6.3 7.1 7.5 7.9 8.5 8.3 8.1 8.4 8.4 8.4 8.3 8.3 8.4 8.5 8.6 8.9 9.0 9.3 9.3 9.2 9.3 9.1 8.9 9.0 9.0 8.9 8.9 9.1 9.2 9.2 9.4 9.4 9.2 8.3 8.4 8.2 8.3 7.9 7.7
6.6 6.6 6.7 6.6 6.7 6.6 7.1 7.1 7.3 7.8 7.8 8.1 8.1 8.4 8.3 8.2 7.7 8.0 8.1 8.3 8.5 8.6 9.0 8.9 8.9 9.1 8.9 9.0 8.8 8.9 8.9 9.0 9.1 8.9 8.8 9.2 9.2 8.4 7.5 7.9 8.1 8.2 8.0 8.0 7.3
6.7 6.9 6.9 6.8 7.0 7.1 6.4 6.8 7.3 7.6 7.9 7.7 7.7 8.2 8.3 8.0 7.8 8.0 8.4 8.1 8.4 8.4 8.5 8.6 8.8 9.0 8.9 8.9 8.8 8.8 9.1 9.0 9.0 8.8 8.7 8.9 9.0 8.3 7.7 8.1 8.6 8.6 8.2 7.8 7.9
Wind_Speed
20 20 20 20 20 20 21 22 21 20 20 20 20 19 18 20 22 2 3 4 3 7 8 7 3 4 5 3 1 3 4 3 2 3 4 6 9 5 9 12 4 6 11 15 21
19 19 20 20 20 21 21 21 22 21 21 20 19 17 18 16 3 5 3 5 2 4 3 5 6 9 3 2 2 4 3 8 5 1 5 10 16 8 6 9 6 12 15 20 21
20 20 19 20 21 21 22 21 22 22 21 20 19 17 15 11 2 4 4 4 4 2 1 2 4 2 2 2 4 5 5 6 7 14 9 8 10 3 15 0 14 22 21 19 19
20 20 22 21 22 23 24 23 23 22 21 19 18 17 15 3 2 0 5 5 3 1 3 3 3 1 4 5 6 4 8 7 7 8 8 8 4 6 3 7 17 22 21 15 17
22 22 22 23 23 24 25 25 24 24 21 18 16 15 4 4 5 4 4 3 2 1 1 1 4 3 4 6 4 4 4 6 7 5 5 10 7 7 2 14 16 18 17 16 15
22 23 23 24 24 25 25 25 25 24 22 17 15 13 1 2 1 10 5 1 4 2 4 3 3 3 4 3 3 5 3 4 4 2 2 6 4 9 7 17 19 20 17 15 17
23 24 25 26 27 27 27 26 26 25 22 15 12 3 1 9 4 11 9 4 3 4 5 5 3 7 6 7 6 4 3 7 9 1 3 11 4 8 17 19 20 19 18 15 18
23 24 26 27 28 29 29 29 29 26 20 11 6 1 6 4 5 4 4 6 7 8 2 7 6 4 2 4 9 6 5 2 9 3 6 4 6 2 18 20 19 18 17 15 14
25 26 26 27 28 29 31 34 31 19 8 7 2 2 8 11 5 7 7 6 4 5 5 4 4 2 6 3 6 6 5 6 10 12 6 4 4 5 14 18 18 17 16 13 12
25 27 28 28 27 28 34 32 16 8 2 3 3 3 5 4 3 4 6 5 3 2 5 0 4 3 4 5 3 5 5 3 5 3 5 2 5 5 11 17 18 15 11 11 13
26 27 29 30 28 25 15 4 5 5 2 6 4 5 7 5 3 3 6 1 2 4 2 2 3 6 9 7 8 6 1 5 3 4 4 5 4 8 8 7 10 11 11 12 13
27 27 29 31 30 27 1 2 4 2 7 9 13 11 14 6 5 3 8 4 2 4 2 5 6 11 6 8 6 3 3 6 4 4 1 4 5 6 9 13 16 14 13 12 7
28 28 29 33 36 2 2 6 9 5 1 8 7 6 6 8 8 7 9 5 2 3 6 6 10 3 6 4 3 4 3 4 8 2 4 4 8 7 4 3 11 10 11 13 15
27 27 28 36 3 6 5 8 11 3 4 8 6 8 5 6 6 8 9 6 4 8 4 6 10 8 8 2 4 2 2 3 4 5 1 4 4 6 9 6 13 8 12 13 10
27 26 25 14 5 3 6 19 9 5 2 4 4 2 9 9 2 5 7 3 6 9 4 7 6 4 3 5 4 8 1 4 3 4 5 9 4 7 6 7 2 6 12 9 9
28 24 22 3 2 7 17 12 4 5 5 5 5 7 7 5 5 3 4 5 4 3 2 11 4 4 7 3 2 1 5 8 6 3 4 5 4 5 1 4 5 3 4 7 10
32 26 9 4 4 8 9 4 5 3 5 4 2 7 10 8 9 5 3 7 5 2 4 7 5 5 3 3 7 5 7 4 4 4 5 1 2 8 5 7 9 9 9 10 13
35 31 5 7 12 6 4 5 3 6 6 5 4 1 6 6 7 7 6 8 4 5 2 3 7 5 2 7 7 4 8 6 4 3 5 5 3 5 5 8 1 7 10 12 11
29 2 2 5 15 3 5 3 7 6 2 7 9 5 7 5 5 7 8 7 10 8 7 4 6 3 6 5 9 2 3 6 5 1 3 3 3 5 9 14 16 13 4 9 10
3 4 4 4 16 4 4 6 5 3 6 5 2 4 3 9 6 7 8 7 7 12 8 6 4 5 8 7 3 8 4 2 3 1 2 5 2 3 6 3 9 10 10 12 12
2 4 4 16 3 5 4 7 5 7 8 6 4 4 3 2 4 6 9 6 12 10 10 7 4 11 3 1 7 1 2 6 5 5 5 2 5 6 6 3 5 6 8 7 5
3 2 3 4 3 1 2 4 7 7 5 6 5 3 3 2 3 4 8 10 10 8 9 10 6 4 6 5 2 4 6 6 5 5 2 5 4 7 5 6 5 5 9 6 4
3 3 2 5 1 2 5 5 4 4 7 5 5 5 2 2 3 3 5 7 3 7 9 7 2 1 7 7 7 2 3 4 5 3 4 5 4 3 5 7 8 11 10 9 9
1 3 4 4 1 1 4 5 5 6 13 7 6 2 5 5 4 4 6 3 5 4 4 7 4 8 7 6 4 2 7 3 6 3 3 6 7 7 9 9 5 7 9 6 7
1 2 1 2 4 4 5 5 5 4 4 4 1 3 2 2 5 6 5 7 6 11 5 4 4 3 5 4 2 1 5 9 4 6 6 5 13 20 12 2 5 10 13 12 9
2 3 4 4 5 5 6 4 10 8 2 6 2 4 8 5 3 3 5 5 1 7 5 6 1 2 6 6 7 4 7 5 5 3 4 5 5 10 7 3 3 4 7 7 6
3 4 3 5 6 6 4 9 11 5 5 1 3 6 6 1 4 5 4 3 2 2 5 3 3 3 3 3 6 6 3 2 6 3 2 3 5 11 9 8 8 10 9 4 6
Wind_Direction
9 5 1 355 350 345 341 338 332 337 333 332 329 327 326 322 312 149 250 209 195 335 327 295 319 278 134 245 87 156 77 97 222 307 287 155 114 30 92 129 189 182 137 140 139
6 3 356 352 345 341 336 335 329 331 332 330 330 324 323 329 299 271 219 167 250 316 328 359 345 354 3 155 178 86 92 221 209 102 213 154 126 142 106 107 86 96 117 127 139
1 358 353 347 342 339 333 332 328 329 330 330 329 323 317 316 345 251 170 174 226 250 237 316 283 255 344 281 182 166 181 206 264 247 197 154 148 91 124 69 156 143 147 145 143
357 354 347 345 341 337 331 330 327 324 326 332 326 320 319 258 124 56 185 213 195 341 317 338 348 284 217 233 209 199 203 169 244 182 121 159 111 130 201 188 161 148 151 149 154
353 350 347 341 337 332 330 327 322 320 322 326 321 326 311 11 257 152 178 253 287 337 233 301 308 353 332 309 67 270 310 213 264 139 148 134 198 158 200 131 146 143 151 153 165
350 345 343 339 334 330 327 324 319 314 314 319 317 322 4 307 155 155 174 251 259 253 270 303 259 259 264 272 146 256 340 302 345 227 248 112 139 124 120 139 152 156 165 161 172
348 344 340 337 332 330 326 320 312 307 304 310 310 315 282 236 191 173 165 219 206 209 318 305 346 52 334 320 333 312 6 344 307 75 148 114 86 172 155 155 160 171 173 172 179
345 341 338 334 331 328 323 315 306 300 296 293 299 271 254 249 164 168 194 284 277 267 201 279 9 354 175 291 359 11 49 340 268 196 228 87 219 226 163 161 171 177 181 183 181
343 338 335 332 330 327 321 310 302 292 260 276 278 54 274 313 205 195 199 233 326 291 285 300 40 270 356 53 8 356 260 225 302 193 155 134 218 196 176 173 176 181 186 181 175
341 336 333 330 328 327 320 304 290 317 166 221 252 358 283 243 206 190 211 228 268 242 339 5 43 5 9 70 226 259 304 271 224 238 149 120 209 197 182 174 179 185 183 169 169
340 336 331 327 325 327 337 357 8 2 31 204 208 261 285 285 134 184 208 152 25 39 205 296 57 236 236 189 219 247 291 331 327 234 122 209 188 198 175 172 177 182 170 168 171
338 334 331 325 322 321 276 9 225 241 302 253 251 247 259 281 287 231 124 143 136 241 343 1 248 247 243 274 211 28 355 314 320 354 25 230 289 197 164 184 178 174 168 161 140
335 334 333 325 319 341 252 257 294 2 341 291 223 215 225 157 220 224 144 168 191 249 236 183 249 320 254 256 44 326 262 303 258 342 11 61 331 340 325 145 180 173 159 164 162
333 334 335 329 352 329 274 314 327 193 40 273 219 242 190 171 261 202 179 150 210 223 238 231 260 242 255 178 140 257 203 255 42 59 287 56 285 322 317 185 176 152 163 175 158
330 331 335 330 293 316 298 325 320 55 10 231 209 185 156 165 163 256 151 163 211 241 68 259 304 301 198 207 141 236 302 306 19 67 43 347 62 275 345 60 60 182 188 169 156
324 327 335 97 260 247 311 312 47 50 254 301 163 149 107 209 237 5 143 142 206 247 248 259 264 250 210 200 217 189 49 30 46 69 15 242 123 283 212 209 168 170 124 146 149
321 317 308 288 237 333 326 34 56 151 318 300 180 160 172 189 225 183 185 180 178 92 307 315 293 293 216 34 3 73 57 358 358 19 219 33 90 241 269 212 174 147 202 153 154
322 314 212 212 249 338 32 54 143 226 262 297 312 357 206 160 228 196 175 196 268 113 35 212 319 197 249 169 185 199 144 151 198 204 252 324 243 267 314 308 162 174 156 147 148
324 325 247 250 215 103 77 97 207 214 311 350 318 195 223 226 185 170 193 195 194 165 171 179 271 328 300 211 135 231 141 191 120 2 54 276 332 342 26 24 32 33 52 151 145
338 343 270 136 145 78 81 226 234 246 4 12 324 27 251 213 164 162 191 197 207 195 163 226 282 261 293 108 95 154 173 46 8 122 283 318 206 236 27 325 83 48 59 53 33
20 11 266 131 84 54 169 235 287 305 24 16 315 329 309 5 208 195 210 234 193 209 168 155 133 274 21 104 170 320 307 60 119 134 164 183 270 301 184 146 113 172 103 93 54
344 37 282 89 60 162 200 227 336 303 47 282 245 237 235 337 358 17 223 200 202 191 173 196 168 183 220 280 196 178 210 141 125 266 180 150 262 310 231 179 184 189 166 158 145
355 276 334 90 163 272 282 291 267 276 277 279 330 302 357 6 38 29 355 323 17 186 164 169 224 272 344 353 1 18 297 146 100 78 199 137 239 288 250 172 175 165 195 229 86
40 12 328 39 146 341 321 267 266 274 259 239 258 288 4 45 38 316 349 324 2 63 58 99 119 162 184 192 205 355 340 80 125 115 183 203 150 229 234 195 282 296 277 24 64
115 290 260 305 300 259 193 289 315 318 276 223 71 89 26 353 28 7 359 335 7 350 32 93 109 120 160 144 100 249 343 332 275 210 166 251 163 187 196 216 293 342 328 336 336
48 36 340 277 300 297 133 247 246 263 279 309 49 50 74 95 134 290 10 27 332 334 42 349 151 96 9 32 51 351 338 320 307 4 87 136 83 93 61 98 132 270 317 310 307
321 335 109 294 338 22 355 324 295 286 282 333 315 107 74 102 259 236 210 267 322 78 30 50 91 69 293 352 36 2 294 11 65 26 148 193 117 139 163 172 194 181 202 218 274